Time,TemperatureF,DewpointF,PressureIn,WindDirection,WindDirectionDegrees,WindSpeedMPH,WindSpeedGustMPH,Humidity,HourlyPrecipIn,Conditions,Clouds,dailyrainin,SoftwareType,DateUTC
2013-08-25 00:09:00,68.6,59.0,30.34,SSE,158,0.0,0.0,72,0.00,,,0.00,weatherlink.com 1.10,2013-08-25 04:09:00,
2013-08-25 00:24:00,67.1,59.0,30.34,SSE,158,0.0,0.0,75,0.00,,,0.00,weatherlink.com 1.10,2013-08-25 04:24:00,
2013-08-25 00:39:00,66.0,59.0,30.33,SSE,158,0.0,0.0,78,0.00,,,0.00,weatherlink.com 1.10,2013-08-25 04:39:00,
2013-08-25 00:54:00,65.2,59.0,30.33,SSE,158,0.0,0.0,79,0.00,,,0.00,weatherlink.com 1.10,2013-08-25 04:54:00,
2013-08-25 01:09:00,64.6,59.0,30.33,SSE,158,0.0,0.0,81,0.00,,,0.00,weatherlink.com 1.10,2013-08-25 05:09:00,
2013-08-25 01:24:00,64.0,58.0,30.33,SSE,158,0.0,0.0,82,0.00,,,0.00,weatherlink.com 1.10,2013-08-25 05:24:00,
2013-08-25 01:39:00,63.7,59.0,30.32,SSE,158,0.0,0.0,83,0.00,,,0.00,weatherlink.com 1.10,2013-08-25 05:39:00,
2013-08-25 01:54:00,63.6,59.0,30.32,SSE,158,0.0,0.0,84,0.00,,,0.00,weatherlink.com 1.10,2013-08-25 05:54:00,
2013-08-25 02:09:00,63.3,58.0,30.32,SSE,158,0.0,0.0,83,0.00,,,0.00,weatherlink.com 1.10,2013-08-25 06:09:00,
2013-08-25 02:24:00,63.4,59.0,30.32,SSE,158,0.0,0.0,84,0.00,,,0.00,weatherlink.com 1.10,2013-08-25 06:24:00,
2013-08-25 02:39:00,63.2,58.0,30.32,SSE,158,0.0,0.0,84,0.00,,,0.00,weatherlink.com 1.10,2013-08-25 06:39:00,
2013-08-25 02:54:00,63.2,59.0,30.32,SSE,158,0.0,0.0,85,0.00,,,0.00,weatherlink.com 1.10,2013-08-25 06:54:00,
2013-08-25 03:09:00,62.8,59.0,30.32,SSE,158,0.0,0.0,86,0.00,,,0.00,weatherlink.com 1.10,2013-08-25 07:09:00,
2013-08-25 03:24:00,62.2,58.0,30.32,SSE,158,0.0,0.0,87,0.00,,,0.00,weatherlink.com 1.10,2013-08-25 07:24:00,
2013-08-25 03:39:00,62.0,58.0,30.32,SSE,158,0.0,0.0,87,0.00,,,0.00,weatherlink.com 1.10,2013-08-25 07:39:00,
2013-08-25 03:54:00,61.6,58.0,30.33,SSE,158,0.0,0.0,88,0.00,,,0.00,weatherlink.com 1.10,2013-08-25 07:54:00,
2013-08-25 04:09:00,61.6,58.0,30.33,SSE,158,0.0,1.0,88,0.00,,,0.00,weatherlink.com 1.10,2013-08-25 08:09:00,
2013-08-25 04:24:00,61.5,58.0,30.34,SSE,158,0.0,0.0,89,0.00,,,0.00,weatherlink.com 1.10,2013-08-25 08:24:00,
2013-08-25 04:39:00,61.1,58.0,30.34,SSE,158,0.0,0.0,89,0.00,,,0.00,weatherlink.com 1.10,2013-08-25 08:39:00,
2013-08-25 04:54:00,60.7,58.0,30.34,SSE,158,0.0,0.0,89,0.00,,,0.00,weatherlink.com 1.10,2013-08-25 08:54:00,
2013-08-25 05:10:00,60.7,58.0,30.34,SSE,158,0.0,0.0,90,0.00,,,0.00,weatherlink.com 1.10,2013-08-25 09:10:00,
2013-08-25 05:25:00,60.7,58.0,30.35,SSE,158,0.0,0.0,89,0.00,,,0.00,weatherlink.com 1.10,2013-08-25 09:25:00,
2013-08-25 05:40:00,60.6,57.0,30.35,SSE,158,0.0,0.0,89,0.00,,,0.00,weatherlink.com 1.10,2013-08-25 09:40:00,
2013-08-25 05:55:00,60.4,57.0,30.36,SSE,158,0.0,0.0,89,0.00,,,0.00,weatherlink.com 1.10,2013-08-25 09:55:00,
2013-08-25 06:10:00,60.2,57.0,30.36,SSE,158,0.0,0.0,90,0.00,,,0.00,weatherlink.com 1.10,2013-08-25 10:10:00,
2013-08-25 06:25:00,59.6,57.0,30.36,SSE,158,0.0,0.0,90,0.00,,,0.00,weatherlink.com 1.10,2013-08-25 10:25:00,
2013-08-25 06:40:00,59.8,57.0,30.37,SSE,158,0.0,0.0,91,0.00,,,0.00,weatherlink.com 1.10,2013-08-25 10:40:00,
2013-08-25 06:55:00,60.0,57.0,30.37,SSE,158,0.0,0.0,91,0.00,,,0.00,weatherlink.com 1.10,2013-08-25 10:55:00,
2013-08-25 07:10:00,61.0,58.0,30.38,SSE,158,0.0,0.0,91,0.00,,,0.00,weatherlink.com 1.10,2013-08-25 11:10:00,
2013-08-25 07:25:00,62.4,59.0,30.38,SSE,158,0.0,0.0,88,0.00,,,0.00,weatherlink.com 1.10,2013-08-25 11:25:00,
2013-08-25 07:40:00,63.9,59.0,30.39,NE,46,0.0,2.0,83,0.00,,,0.00,weatherlink.com 1.10,2013-08-25 11:40:00,
2013-08-25 07:55:00,65.4,59.0,30.39,NE,46,0.0,1.0,79,0.00,,,0.00,weatherlink.com 1.10,2013-08-25 11:55:00,
2013-08-25 08:10:00,67.3,59.0,30.39,NE,46,1.0,2.0,75,0.00,,,0.00,weatherlink.com 1.10,2013-08-25 12:10:00,
2013-08-25 08:25:00,69.5,59.0,30.38,East,100,0.0,1.0,70,0.00,,,0.00,weatherlink.com 1.10,2013-08-25 12:25:00,
2013-08-25 08:40:00,71.6,58.0,30.38,SE,135,2.0,4.0,62,0.00,,,0.00,weatherlink.com 1.10,2013-08-25 12:40:00,
2013-08-25 08:55:00,72.0,58.0,30.39,SE,142,3.0,4.0,62,0.00,,,0.00,weatherlink.com 1.10,2013-08-25 12:55:00,
2013-08-25 09:10:00,72.4,59.0,30.39,ENE,68,0.0,3.0,63,0.00,,,0.00,weatherlink.com 1.10,2013-08-25 13:10:00,
2013-08-25 09:25:00,74.0,59.0,30.39,SE,141,1.0,3.0,60,0.00,,,0.00,weatherlink.com 1.10,2013-08-25 13:25:00,
2013-08-25 09:40:00,74.7,59.0,30.39,ENE,61,2.0,3.0,59,0.00,,,0.00,weatherlink.com 1.10,2013-08-25 13:40:00,
2013-08-25 09:55:00,75.5,59.0,30.39,SE,146,0.0,4.0,56,0.00,,,0.00,weatherlink.com 1.10,2013-08-25 13:55:00,
2013-08-25 10:10:00,77.3,59.0,30.38,SSE,152,2.0,3.0,54,0.00,,,0.00,weatherlink.com 1.10,2013-08-25 14:10:00,
2013-08-25 10:25:00,77.7,59.0,30.37,NE,49,1.0,4.0,52,0.00,,,0.00,weatherlink.com 1.10,2013-08-25 14:25:00,
2013-08-25 10:40:00,79.1,59.0,30.37,NNE,32,2.0,3.0,51,0.00,,,0.00,weatherlink.com 1.10,2013-08-25 14:40:00,
2013-08-25 10:55:00,79.3,58.0,30.37,South,173,1.0,3.0,49,0.00,,,0.00,weatherlink.com 1.10,2013-08-25 14:55:00,
2013-08-25 11:10:00,80.3,56.0,30.36,SSE,167,0.0,4.0,43,0.00,,,0.00,weatherlink.com 1.10,2013-08-25 15:10:00,
2013-08-25 11:25:00,81.3,56.0,30.36,North,349,0.0,5.0,42,0.00,,,0.00,weatherlink.com 1.10,2013-08-25 15:25:00,
2013-08-25 11:40:00,81.9,56.0,30.35,South,177,0.0,3.0,41,0.00,,,0.00,weatherlink.com 1.10,2013-08-25 15:40:00,
2013-08-25 11:55:00,81.4,54.0,30.35,SE,140,2.0,6.0,39,0.00,,,0.00,weatherlink.com 1.10,2013-08-25 15:55:00,
2013-08-25 12:10:00,82.5,54.0,30.35,WSW,246,2.0,4.0,37,0.00,,,0.00,weatherlink.com 1.10,2013-08-25 16:10:00,
2013-08-25 12:25:00,82.5,53.0,30.34,SE,140,1.0,4.0,36,0.00,,,0.00,weatherlink.com 1.10,2013-08-25 16:25:00,
2013-08-25 12:40:00,83.5,54.0,30.33,NE,54,1.0,3.0,36,0.00,,,0.00,weatherlink.com 1.10,2013-08-25 16:40:00,
2013-08-25 12:55:00,84.3,52.0,30.33,North,351,3.0,6.0,33,0.00,,,0.00,weatherlink.com 1.10,2013-08-25 16:55:00,
2013-08-25 13:10:00,84.9,54.0,30.32,NNE,16,3.0,5.0,35,0.00,,,0.00,weatherlink.com 1.10,2013-08-25 17:10:00,
2013-08-25 13:25:00,84.6,56.0,30.32,NNE,13,3.0,6.0,37,0.00,,,0.00,weatherlink.com 1.10,2013-08-25 17:25:00,
2013-08-25 13:40:00,84.2,55.0,30.32,East,94,3.0,6.0,37,0.00,,,0.00,weatherlink.com 1.10,2013-08-25 17:40:00,
2013-08-25 13:55:00,83.8,56.0,30.32,SSE,162,0.0,4.0,38,0.00,,,0.00,weatherlink.com 1.10,2013-08-25 17:55:00,
2013-08-25 14:10:00,85.2,56.0,30.31,ESE,119,2.0,5.0,37,0.00,,,0.00,weatherlink.com 1.10,2013-08-25 18:10:00,
2013-08-25 14:25:00,84.7,55.0,30.31,SSE,163,2.0,8.0,36,0.00,,,0.00,weatherlink.com 1.10,2013-08-25 18:25:00,
2013-08-25 14:40:00,85.2,55.0,30.30,North,1,5.0,6.0,35,0.00,,,0.00,weatherlink.com 1.10,2013-08-25 18:40:00,
2013-08-25 14:55:00,85.0,54.0,30.30,SSE,150,1.0,6.0,35,0.00,,,0.00,weatherlink.com 1.10,2013-08-25 18:55:00,
2013-08-25 15:10:00,86.0,55.0,30.30,SE,136,3.0,7.0,35,0.00,,,0.00,weatherlink.com 1.10,2013-08-25 19:10:00,
2013-08-25 15:25:00,84.4,55.0,30.30,ESE,115,1.0,8.0,36,0.00,,,0.00,weatherlink.com 1.10,2013-08-25 19:25:00,
2013-08-25 15:40:00,84.8,55.0,30.30,SSE,159,3.0,7.0,36,0.00,,,0.00,weatherlink.com 1.10,2013-08-25 19:40:00,
2013-08-25 15:55:00,83.9,55.0,30.29,South,172,1.0,4.0,37,0.00,,,0.00,weatherlink.com 1.10,2013-08-25 19:55:00,
2013-08-25 16:10:00,84.1,54.0,30.29,SSE,148,1.0,6.0,36,0.00,,,0.00,weatherlink.com 1.10,2013-08-25 20:10:00,
2013-08-25 16:25:00,83.5,54.0,30.28,SSE,165,2.0,6.0,36,0.00,,,0.00,weatherlink.com 1.10,2013-08-25 20:25:00,
2013-08-25 16:40:00,83.4,54.0,30.28,North,1,2.0,5.0,36,0.00,,,0.00,weatherlink.com 1.10,2013-08-25 20:40:00,
2013-08-25 16:55:00,83.1,54.0,30.27,SE,146,1.0,6.0,37,0.00,,,0.00,weatherlink.com 1.10,2013-08-25 20:55:00,
2013-08-25 17:10:00,82.7,55.0,30.27,SSE,151,2.0,6.0,39,0.00,,,0.00,weatherlink.com 1.10,2013-08-25 21:10:00,
2013-08-25 17:25:00,82.1,54.0,30.26,East,88,1.0,7.0,38,0.00,,,0.00,weatherlink.com 1.10,2013-08-25 21:25:00,
2013-08-25 17:40:00,81.8,55.0,30.26,SSE,149,1.0,7.0,40,0.00,,,0.00,weatherlink.com 1.10,2013-08-25 21:40:00,
2013-08-25 17:55:00,81.7,56.0,30.25,NNE,31,2.0,4.0,41,0.00,,,0.00,weatherlink.com 1.10,2013-08-25 21:55:00,
2013-08-25 18:10:00,81.0,55.0,30.24,SSE,162,2.0,3.0,41,0.00,,,0.00,weatherlink.com 1.10,2013-08-25 22:10:00,
2013-08-25 18:25:00,80.4,56.0,30.24,SSW,194,3.0,6.0,43,0.00,,,0.00,weatherlink.com 1.10,2013-08-25 22:25:00,
2013-08-25 18:40:00,80.2,56.0,30.23,SE,139,2.0,5.0,43,0.00,,,0.00,weatherlink.com 1.10,2013-08-25 22:40:00,
2013-08-25 18:55:00,79.6,55.0,30.23,NE,37,2.0,7.0,43,0.00,,,0.00,weatherlink.com 1.10,2013-08-25 22:55:00,
2013-08-25 19:10:00,79.0,55.0,30.23,SSE,156,0.0,4.0,44,0.00,,,0.00,weatherlink.com 1.10,2013-08-25 23:10:00,
2013-08-25 19:25:00,78.7,56.0,30.23,SSE,162,1.0,4.0,45,0.00,,,0.00,weatherlink.com 1.10,2013-08-25 23:25:00,
2013-08-25 19:40:00,78.3,56.0,30.23,South,172,1.0,5.0,46,0.00,,,0.00,weatherlink.com 1.10,2013-08-25 23:40:00,
2013-08-25 19:56:00,77.9,55.0,30.23,SSE,156,0.0,3.0,46,0.00,,,0.00,weatherlink.com 1.10,2013-08-25 23:56:00,
2013-08-25 20:10:00,77.6,55.0,30.23,SSE,149,1.0,3.0,46,0.00,,,0.00,weatherlink.com 1.10,2013-08-26 00:10:00,
2013-08-25 20:25:00,77.4,55.0,30.23,SE,135,2.0,4.0,46,0.00,,,0.00,weatherlink.com 1.10,2013-08-26 00:25:00,
2013-08-25 20:40:00,77.2,55.0,30.23,SE,141,3.0,4.0,47,0.00,,,0.00,weatherlink.com 1.10,2013-08-26 00:40:00,
2013-08-25 20:55:00,76.9,56.0,30.24,SE,143,3.0,3.0,48,0.00,,,0.00,weatherlink.com 1.10,2013-08-26 00:55:00,
2013-08-25 21:10:00,76.5,55.0,30.24,SSE,156,4.0,5.0,48,0.00,,,0.00,weatherlink.com 1.10,2013-08-26 01:10:00,
2013-08-25 21:26:00,75.9,55.0,30.24,SSE,149,0.0,4.0,49,0.00,,,0.00,weatherlink.com 1.10,2013-08-26 01:26:00,
2013-08-25 21:41:00,74.8,58.0,30.24,South,172,0.0,2.0,56,0.00,,,0.00,weatherlink.com 1.10,2013-08-26 01:41:00,
2013-08-25 21:56:00,73.7,57.0,30.24,SSE,158,1.0,2.0,57,0.00,,,0.00,weatherlink.com 1.10,2013-08-26 01:56:00,
2013-08-25 22:11:00,73.1,57.0,30.24,South,178,1.0,4.0,58,0.00,,,0.00,weatherlink.com 1.10,2013-08-26 02:11:00,
2013-08-25 22:26:00,72.4,57.0,30.24,South,172,1.0,2.0,58,0.00,,,0.00,weatherlink.com 1.10,2013-08-26 02:26:00,
2013-08-25 22:41:00,72.3,57.0,30.23,SSE,160,0.0,1.0,59,0.00,,,0.00,weatherlink.com 1.10,2013-08-26 02:41:00,
2013-08-25 22:56:00,72.2,57.0,30.24,SSE,153,0.0,1.0,59,0.00,,,0.00,weatherlink.com 1.10,2013-08-26 02:56:00,
2013-08-25 23:11:00,72.3,57.0,30.23,SSE,153,1.0,4.0,59,0.00,,,0.00,weatherlink.com 1.10,2013-08-26 03:11:00,
2013-08-25 23:26:00,72.1,57.0,30.23,SSE,161,3.0,5.0,59,0.00,,,0.00,weatherlink.com 1.10,2013-08-26 03:26:00,
2013-08-25 23:41:00,71.7,57.0,30.23,South,183,1.0,5.0,60,0.00,,,0.00,weatherlink.com 1.10,2013-08-26 03:41:00,
2013-08-25 23:56:00,71.3,57.0,30.23,SSE,167,2.0,5.0,61,0.00,,,0.00,weatherlink.com 1.10,2013-08-26 03:56:00,